Location: Prairie State College
(41.5244°N, 87.6382°W)
Time: 02:58:48
(UTC-06:00)

Cosmos 1140 Rocket - Visible Passes

Search period start: 06 March 2015 00:00
Search period end: 16 March 2015 01:00
Orbit: 746 x 768 km, 74.1° (Epoch: 04 March)

Date Brightness Start Highest point End Pass type
(mag) Time Alt. Az. Time Alt. Az. Time Alt. Az.
06 Mar 5.1 19:55:39 10° N 19:57:58 21° NNE 19:57:58 21° NNE visible
06 Mar 6.2 21:37:10 10° NW 21:38:01 14° NW 21:38:01 14° NW visible
07 Mar 5.2 19:16:10 10° NNE 19:18:45 16° NE 19:18:45 16° NE visible
07 Mar 5.3 20:56:33 10° NNW 20:58:49 26° NNW 20:58:49 26° NNW visible
08 Mar 4.3 21:16:13 10° NNW 21:19:40 41° N 21:19:40 41° N visible
09 Mar 4.1 20:36:08 10° N 20:40:35 35° NE 20:40:35 35° NE visible
09 Mar 5.7 22:18:13 10° NW 22:20:39 22° WNW 22:20:39 22° WNW visible
10 Mar 4.8 19:56:23 10° N 20:00:12 21° ENE 20:01:34 19° ENE visible
10 Mar 4.3 21:37:23 10° NNW 21:41:39 47° WNW 21:41:39 47° WNW visible
11 Mar 5.3 19:17:25 10° NNE 19:19:22 12° NE 19:21:33 10° ENE visible
11 Mar 3.3 20:56:55 10° NNW 21:02:07 87° ENE 21:02:44 70° SSE visible
11 Mar 6.3 22:42:16 10° W 22:42:49 10° W 22:42:49 10° W visible
12 Mar 3.7 20:16:42 10° N 20:21:42 47° ENE 20:23:56 29° ESE visible
12 Mar 5.6 21:59:24 10° NW 22:03:12 20° W 22:04:01 19° WSW visible
13 Mar 4.5 19:36:46 10° N 19:41:06 27° ENE 19:45:15 11° ESE visible
13 Mar 4.7 21:18:18 10° NW 21:23:04 37° WSW 21:25:21 25° SSW visible
14 Mar 3.7 20:37:40 10° NNW 20:42:49 70° WSW 20:46:51 17° S visible
15 Mar 3.5 19:57:20 10° NNW 20:02:28 64° ENE 20:07:38 10° SSE visible
15 Mar 6.2 21:40:51 10° WNW 21:43:49 15° W 21:46:31 10° SW visible
